Year,Month,Day,Hour,Minute,Value (Times are PST for temperature in C)
2015,04,25,00,00,5.60
2015,04,25,00,01,5.50
2015,04,25,00,02,5.50
2015,04,25,00,03,5.50
2015,04,25,00,04,5.40
2015,04,25,00,05,5.40
2015,04,25,00,06,5.40
2015,04,25,00,07,5.30
2015,04,25,00,08,5.30
2015,04,25,00,09,5.30
2015,04,25,00,10,5.30
2015,04,25,00,11,5.30
2015,04,25,00,12,5.30
2015,04,25,00,13,5.30
2015,04,25,00,14,5.30
2015,04,25,00,15,5.30
2015,04,25,00,16,5.30
2015,04,25,00,17,5.30
2015,04,25,00,18,5.30
2015,04,25,00,19,5.30
2015,04,25,00,20,5.30
2015,04,25,00,21,5.40
2015,04,25,00,22,5.40
2015,04,25,00,23,5.40
2015,04,25,00,24,5.50
2015,04,25,00,25,5.50
2015,04,25,00,26,5.50
2015,04,25,00,27,5.60
2015,04,25,00,28,5.60
2015,04,25,00,29,5.60
2015,04,25,00,30,5.60
2015,04,25,00,31,5.60
2015,04,25,00,32,5.60
2015,04,25,00,33,5.50
2015,04,25,00,34,5.50
2015,04,25,00,35,5.50
2015,04,25,00,36,5.40
2015,04,25,00,37,5.40
2015,04,25,00,38,5.40
2015,04,25,00,39,5.40
2015,04,25,00,40,5.30
2015,04,25,00,41,5.30
2015,04,25,00,42,5.30
2015,04,25,00,43,5.30
2015,04,25,00,44,5.30
2015,04,25,00,45,5.20
2015,04,25,00,46,5.20
2015,04,25,00,47,5.20
2015,04,25,00,48,5.10
2015,04,25,00,49,5.10
2015,04,25,00,50,5.10
2015,04,25,00,51,5.10
2015,04,25,00,52,5.10
2015,04,25,00,53,5.10
2015,04,25,00,54,5.00
2015,04,25,00,55,4.90
2015,04,25,00,56,4.90
2015,04,25,00,57,4.90
2015,04,25,00,58,4.90
2015,04,25,00,59,4.90
2015,04,25,01,00,4.90
2015,04,25,01,01,4.90
2015,04,25,01,02,4.90
2015,04,25,01,03,4.90
2015,04,25,01,04,4.90
2015,04,25,01,05,4.90
2015,04,25,01,06,4.90
2015,04,25,01,07,4.90
2015,04,25,01,08,4.90
2015,04,25,01,09,4.90
2015,04,25,01,10,4.90
2015,04,25,01,11,4.90
2015,04,25,01,12,4.90
2015,04,25,01,13,4.90
2015,04,25,01,14,4.90
2015,04,25,01,15,4.90
2015,04,25,01,16,4.90
2015,04,25,01,17,4.80
2015,04,25,01,18,4.80
2015,04,25,01,19,4.80
2015,04,25,01,20,4.70
2015,04,25,01,21,4.70
2015,04,25,01,22,4.70
2015,04,25,01,23,4.60
2015,04,25,01,24,4.60
2015,04,25,01,25,4.60
2015,04,25,01,26,4.60
2015,04,25,01,27,4.60
2015,04,25,01,28,4.60
2015,04,25,01,29,4.60
2015,04,25,01,30,4.60
2015,04,25,01,31,4.60
2015,04,25,01,32,4.70
2015,04,25,01,33,4.70
2015,04,25,01,34,4.70
2015,04,25,01,35,4.70
2015,04,25,01,36,4.80
2015,04,25,01,37,4.80
2015,04,25,01,38,4.80
2015,04,25,01,39,4.80
2015,04,25,01,40,4.80
2015,04,25,01,41,4.80
2015,04,25,01,42,4.80
2015,04,25,01,43,4.80
2015,04,25,01,44,4.80
2015,04,25,01,45,4.80
2015,04,25,01,46,4.80
2015,04,25,01,47,4.80
2015,04,25,01,48,4.80
2015,04,25,01,49,4.80
2015,04,25,01,50,4.80
2015,04,25,01,51,4.80
2015,04,25,01,52,4.80
2015,04,25,01,53,4.80
2015,04,25,01,54,4.80
2015,04,25,01,55,4.80
2015,04,25,01,56,4.80
2015,04,25,01,57,4.70
2015,04,25,01,58,4.70
2015,04,25,01,59,4.70
2015,04,25,02,00,4.70
2015,04,25,02,01,4.70
2015,04,25,02,02,4.70
2015,04,25,02,03,4.70
2015,04,25,02,04,4.70
2015,04,25,02,05,4.70
2015,04,25,02,06,4.60
2015,04,25,02,07,4.60
2015,04,25,02,08,4.60
2015,04,25,02,09,4.60
2015,04,25,02,10,4.60
2015,04,25,02,11,4.60
2015,04,25,02,12,4.50
2015,04,25,02,13,4.50
2015,04,25,02,14,4.50
2015,04,25,02,15,4.50
2015,04,25,02,16,4.50
2015,04,25,02,17,4.50
2015,04,25,02,18,4.50
2015,04,25,02,19,4.50
2015,04,25,02,20,4.50
2015,04,25,02,21,4.60
2015,04,25,02,22,4.60
2015,04,25,02,23,4.70
2015,04,25,02,24,4.70
2015,04,25,02,25,4.70
2015,04,25,02,26,4.70
2015,04,25,02,27,4.80
2015,04,25,02,28,4.80
2015,04,25,02,29,4.80
2015,04,25,02,30,4.80
2015,04,25,02,31,4.80
2015,04,25,02,32,4.90
2015,04,25,02,33,4.90
2015,04,25,02,34,4.90
2015,04,25,02,35,4.90
2015,04,25,02,36,4.90
2015,04,25,02,37,4.90
2015,04,25,02,38,4.90
2015,04,25,02,39,4.90
2015,04,25,02,40,5.00
2015,04,25,02,41,5.10
2015,04,25,02,42,5.10
2015,04,25,02,43,5.10
2015,04,25,02,44,5.00
2015,04,25,02,45,4.90
2015,04,25,02,46,4.90
2015,04,25,02,47,4.90
2015,04,25,02,48,4.90
2015,04,25,02,49,4.90
2015,04,25,02,50,4.90
2015,04,25,02,51,4.90
2015,04,25,02,52,4.90
2015,04,25,02,53,4.90
2015,04,25,02,54,4.90
2015,04,25,02,55,4.90
2015,04,25,02,56,4.90
2015,04,25,02,57,4.90
2015,04,25,02,58,4.90
2015,04,25,02,59,4.90
2015,04,25,03,00,4.90
2015,04,25,03,01,4.90
2015,04,25,03,02,4.90
2015,04,25,03,03,4.90
2015,04,25,03,04,4.90
2015,04,25,03,05,4.90
2015,04,25,03,06,4.90
2015,04,25,03,07,4.80
2015,04,25,03,08,4.80
2015,04,25,03,09,4.80
2015,04,25,03,10,4.80
2015,04,25,03,11,4.80
2015,04,25,03,12,4.80
2015,04,25,03,13,4.80
2015,04,25,03,14,4.70
2015,04,25,03,15,4.70
2015,04,25,03,16,4.70
2015,04,25,03,17,4.70
2015,04,25,03,18,4.70
2015,04,25,03,19,4.70
2015,04,25,03,20,4.70
2015,04,25,03,21,4.70
2015,04,25,03,22,4.70
2015,04,25,03,23,4.70
2015,04,25,03,24,4.70
2015,04,25,03,25,4.70
2015,04,25,03,26,4.70
2015,04,25,03,27,4.70
2015,04,25,03,28,4.70
2015,04,25,03,29,4.70
2015,04,25,03,30,4.70
2015,04,25,03,31,4.70
2015,04,25,03,32,4.70
2015,04,25,03,33,4.60
2015,04,25,03,34,4.60
2015,04,25,03,35,4.60
2015,04,25,03,36,4.60
2015,04,25,03,37,4.60
2015,04,25,03,38,4.60
2015,04,25,03,39,4.60
2015,04,25,03,40,4.60
2015,04,25,03,41,4.60
2015,04,25,03,42,4.60
2015,04,25,03,43,4.60
2015,04,25,03,44,4.60
2015,04,25,03,45,4.60
2015,04,25,03,46,4.60
2015,04,25,03,47,4.60
2015,04,25,03,48,4.60
2015,04,25,03,49,4.60
2015,04,25,03,50,4.60
2015,04,25,03,51,4.60
2015,04,25,03,52,4.60
2015,04,25,03,53,4.60
2015,04,25,03,54,4.60
2015,04,25,03,55,4.70
2015,04,25,03,56,4.70
2015,04,25,03,57,4.70
2015,04,25,03,58,4.70
2015,04,25,03,59,4.80
2015,04,25,04,00,4.80
2015,04,25,04,01,4.80
2015,04,25,04,02,4.90
2015,04,25,04,03,4.90
2015,04,25,04,04,4.90
2015,04,25,04,05,4.90
2015,04,25,04,06,4.90
2015,04,25,04,07,4.90
2015,04,25,04,08,4.90
2015,04,25,04,09,4.90
2015,04,25,04,10,4.90
2015,04,25,04,11,4.90
2015,04,25,04,12,4.90
2015,04,25,04,13,4.90
2015,04,25,04,14,4.90
2015,04,25,04,15,4.90
2015,04,25,04,16,4.90
2015,04,25,04,17,4.90
2015,04,25,04,18,4.90
2015,04,25,04,19,4.90
2015,04,25,04,20,4.90
2015,04,25,04,21,4.90
2015,04,25,04,22,4.90
2015,04,25,04,23,4.90
2015,04,25,04,24,4.90
2015,04,25,04,25,4.90
2015,04,25,04,26,4.90
2015,04,25,04,27,4.90
2015,04,25,04,28,4.90
2015,04,25,04,29,4.90
2015,04,25,04,30,4.90
2015,04,25,04,31,4.90
2015,04,25,04,32,4.90
2015,04,25,04,33,4.90
2015,04,25,04,34,4.90
2015,04,25,04,35,4.90
2015,04,25,04,36,4.90
2015,04,25,04,37,4.90
2015,04,25,04,38,4.90
2015,04,25,04,39,4.90
2015,04,25,04,40,4.90
2015,04,25,04,41,4.90
2015,04,25,04,42,4.90
2015,04,25,04,43,4.90
2015,04,25,04,44,4.90
2015,04,25,04,45,4.90
2015,04,25,04,46,4.90
2015,04,25,04,47,4.90
2015,04,25,04,48,4.90
2015,04,25,04,49,4.90
2015,04,25,04,50,4.90
2015,04,25,04,51,4.90
2015,04,25,04,52,4.90
2015,04,25,04,53,4.90
2015,04,25,04,54,4.80
2015,04,25,04,55,4.80
2015,04,25,04,56,4.80
2015,04,25,04,57,4.80
2015,04,25,04,58,4.80
2015,04,25,04,59,4.80
2015,04,25,05,00,4.80
2015,04,25,05,01,4.80
2015,04,25,05,02,4.90
2015,04,25,05,03,4.90
2015,04,25,05,04,4.90
2015,04,25,05,05,4.90
2015,04,25,05,06,4.90
2015,04,25,05,07,4.90
2015,04,25,05,08,4.90
2015,04,25,05,09,4.90
2015,04,25,05,10,4.90
2015,04,25,05,11,4.90
2015,04,25,05,12,4.90
2015,04,25,05,13,4.90
2015,04,25,05,14,4.90
2015,04,25,05,15,4.90
2015,04,25,05,16,4.90
2015,04,25,05,17,4.90
2015,04,25,05,18,4.90
2015,04,25,05,19,4.90
2015,04,25,05,20,4.80
2015,04,25,05,21,4.80
2015,04,25,05,22,4.80
2015,04,25,05,23,4.80
2015,04,25,05,24,4.80
2015,04,25,05,25,4.80
2015,04,25,05,26,4.80
2015,04,25,05,27,4.80
2015,04,25,05,28,4.80
2015,04,25,05,29,4.80
2015,04,25,05,30,4.80
2015,04,25,05,31,4.90
2015,04,25,05,32,4.90
2015,04,25,05,33,4.90
2015,04,25,05,34,4.90
2015,04,25,05,35,4.90
2015,04,25,05,36,4.90
2015,04,25,05,37,4.90
2015,04,25,05,38,4.90
2015,04,25,05,39,4.90
2015,04,25,05,40,4.90
2015,04,25,05,41,4.90
2015,04,25,05,42,4.90
2015,04,25,05,43,4.90
2015,04,25,05,44,5.00
2015,04,25,05,45,5.10
2015,04,25,05,46,5.10
2015,04,25,05,47,5.10
2015,04,25,05,48,5.10
2015,04,25,05,49,5.10
2015,04,25,05,50,5.10
2015,04,25,05,51,5.00
2015,04,25,05,52,5.00
2015,04,25,05,53,5.00
2015,04,25,05,54,5.00
2015,04,25,05,55,4.90
2015,04,25,05,56,5.00
2015,04,25,05,57,5.10
2015,04,25,05,58,5.10
2015,04,25,05,59,5.10
2015,04,25,06,00,5.10
2015,04,25,06,01,5.10
2015,04,25,06,02,5.10
2015,04,25,06,03,5.10
2015,04,25,06,04,5.10
2015,04,25,06,05,5.10
2015,04,25,06,06,5.10
2015,04,25,06,07,5.10
2015,04,25,06,08,5.10
2015,04,25,06,09,5.10
2015,04,25,06,10,5.10
2015,04,25,06,11,5.10
2015,04,25,06,12,5.10
2015,04,25,06,13,5.10
2015,04,25,06,14,5.10
2015,04,25,06,15,5.10
2015,04,25,06,16,5.10
2015,04,25,06,17,5.10
2015,04,25,06,18,5.20
2015,04,25,06,19,5.20
2015,04,25,06,20,5.20
2015,04,25,06,21,5.20
2015,04,25,06,22,5.20
2015,04,25,06,23,5.20
2015,04,25,06,24,5.30
2015,04,25,06,25,5.30
2015,04,25,06,26,5.30
2015,04,25,06,27,5.30
2015,04,25,06,28,5.30
2015,04,25,06,29,5.20
2015,04,25,06,30,5.20
2015,04,25,06,31,5.20
2015,04,25,06,32,5.20
2015,04,25,06,33,5.20
2015,04,25,06,34,5.20
2015,04,25,06,35,5.20
2015,04,25,06,36,5.20
2015,04,25,06,37,5.20
2015,04,25,06,38,5.20
2015,04,25,06,39,5.20
2015,04,25,06,40,5.20
2015,04,25,06,41,5.20
2015,04,25,06,42,5.20
2015,04,25,06,43,5.20
2015,04,25,06,44,5.20
2015,04,25,06,45,5.20
2015,04,25,06,46,5.20
2015,04,25,06,47,5.20
2015,04,25,06,48,5.20
2015,04,25,06,49,5.20
2015,04,25,06,50,5.20
2015,04,25,06,51,5.20
2015,04,25,06,52,5.20
2015,04,25,06,53,5.20
2015,04,25,06,54,5.20
2015,04,25,06,55,5.20
2015,04,25,06,56,5.20
2015,04,25,06,57,5.20
2015,04,25,06,58,5.20
2015,04,25,06,59,5.20
2015,04,25,07,00,5.20
2015,04,25,07,01,5.30
2015,04,25,07,02,5.30
2015,04,25,07,03,5.30
2015,04,25,07,04,5.30
2015,04,25,07,05,5.30
2015,04,25,07,06,5.30
2015,04,25,07,07,5.30
2015,04,25,07,08,5.30
2015,04,25,07,09,5.30
2015,04,25,07,10,5.30
2015,04,25,07,11,5.30
2015,04,25,07,12,5.40
2015,04,25,07,13,5.40
2015,04,25,07,14,5.40
2015,04,25,07,15,5.40
2015,04,25,07,16,5.50
2015,04,25,07,17,5.50
2015,04,25,07,18,5.50
2015,04,25,07,19,5.50
2015,04,25,07,20,5.50
2015,04,25,07,21,5.60
2015,04,25,07,22,5.60
2015,04,25,07,23,5.70
2015,04,25,07,24,5.80
2015,04,25,07,25,5.80
2015,04,25,07,26,5.80
2015,04,25,07,27,5.80
2015,04,25,07,28,5.80
2015,04,25,07,29,5.80
2015,04,25,07,30,5.90
2015,04,25,07,31,5.90
2015,04,25,07,32,5.90
2015,04,25,07,33,5.90
2015,04,25,07,34,5.90
2015,04,25,07,35,5.90
2015,04,25,07,36,5.90
2015,04,25,07,37,5.90
2015,04,25,07,38,6.00
2015,04,25,07,39,6.00
2015,04,25,07,40,6.00
2015,04,25,07,41,6.00
2015,04,25,07,42,6.00
2015,04,25,07,43,6.00
2015,04,25,07,44,6.00
2015,04,25,07,45,6.00
2015,04,25,07,46,6.00
2015,04,25,07,47,6.00
2015,04,25,07,48,6.10
2015,04,25,07,49,6.20
2015,04,25,07,50,6.20
2015,04,25,07,51,6.20
2015,04,25,07,52,6.20
2015,04,25,07,53,6.20
2015,04,25,07,54,6.20
2015,04,25,07,55,6.20
2015,04,25,07,56,6.20
2015,04,25,07,57,6.20
2015,04,25,07,58,6.20
2015,04,25,07,59,6.20
2015,04,25,08,00,6.20
2015,04,25,08,01,6.30
2015,04,25,08,02,6.30
2015,04,25,08,03,6.30
2015,04,25,08,04,6.40
2015,04,25,08,05,6.40
2015,04,25,08,06,6.40
2015,04,25,08,07,6.40
2015,04,25,08,08,6.40
2015,04,25,08,09,6.40
2015,04,25,08,10,6.40
2015,04,25,08,11,6.40
2015,04,25,08,12,6.40
2015,04,25,08,13,6.40
2015,04,25,08,14,6.40
2015,04,25,08,15,6.40
2015,04,25,08,16,6.40
2015,04,25,08,17,6.40
2015,04,25,08,18,6.50
2015,04,25,08,19,6.60
2015,04,25,08,20,6.60
2015,04,25,08,21,6.60
2015,04,25,08,22,6.60
2015,04,25,08,23,6.60
2015,04,25,08,24,6.60
2015,04,25,08,25,6.60
2015,04,25,08,26,6.60
2015,04,25,08,27,6.60
2015,04,25,08,28,6.60
2015,04,25,08,29,6.60
2015,04,25,08,30,6.60
2015,04,25,08,31,6.60
2015,04,25,08,32,6.60
2015,04,25,08,33,6.60
2015,04,25,08,34,6.60
2015,04,25,08,35,6.60
2015,04,25,08,36,6.60
2015,04,25,08,37,6.60
2015,04,25,08,38,6.70
2015,04,25,08,39,6.70
2015,04,25,08,40,6.70
2015,04,25,08,41,6.80
2015,04,25,08,42,6.80
2015,04,25,08,43,6.80
2015,04,25,08,44,6.80
2015,04,25,08,45,6.80
2015,04,25,08,46,6.80
2015,04,25,08,47,6.90
2015,04,25,08,48,6.90
2015,04,25,08,49,6.90
2015,04,25,08,50,6.90
2015,04,25,08,51,6.90
2015,04,25,08,52,6.90
2015,04,25,08,53,6.90
2015,04,25,08,54,6.90
2015,04,25,08,55,6.90
2015,04,25,08,56,6.90
2015,04,25,08,57,6.90
2015,04,25,08,58,7.00
2015,04,25,08,59,7.00
2015,04,25,09,00,7.00
2015,04,25,09,01,7.00
2015,04,25,09,02,7.10
2015,04,25,09,03,7.10
2015,04,25,09,04,7.10
2015,04,25,09,05,7.10
2015,04,25,09,06,7.20
2015,04,25,09,07,7.20
2015,04,25,09,08,7.20
2015,04,25,09,09,7.30
2015,04,25,09,10,7.30
2015,04,25,09,11,7.30
2015,04,25,09,12,7.30
2015,04,25,09,13,7.30
2015,04,25,09,14,7.30
2015,04,25,09,15,7.30
2015,04,25,09,16,7.30
2015,04,25,09,17,7.30
2015,04,25,09,18,7.30
2015,04,25,09,19,7.30
2015,04,25,09,20,7.30
2015,04,25,09,21,7.30
2015,04,25,09,22,7.30
2015,04,25,09,23,7.30
2015,04,25,09,24,7.30
2015,04,25,09,25,7.30
2015,04,25,09,26,7.30
2015,04,25,09,27,7.30
2015,04,25,09,28,7.30
2015,04,25,09,29,7.40
2015,04,25,09,30,7.40
2015,04,25,09,31,7.40
2015,04,25,09,32,7.40
2015,04,25,09,33,7.40
2015,04,25,09,34,7.40
2015,04,25,09,35,7.40
2015,04,25,09,36,7.40
2015,04,25,09,37,7.50
2015,04,25,09,38,7.50
2015,04,25,09,39,7.50
2015,04,25,09,40,7.60
2015,04,25,09,41,7.60
2015,04,25,09,42,7.60
2015,04,25,09,43,7.70
2015,04,25,09,44,7.70
2015,04,25,09,45,7.70
2015,04,25,09,46,7.70
2015,04,25,09,47,7.70
2015,04,25,09,48,7.70
2015,04,25,09,49,7.70
2015,04,25,09,50,7.70
2015,04,25,09,51,7.70
2015,04,25,09,52,7.80
2015,04,25,09,53,7.80
2015,04,25,09,54,7.80
2015,04,25,09,55,7.80
2015,04,25,09,56,7.90
2015,04,25,09,57,7.90
2015,04,25,09,58,7.90
2015,04,25,09,59,7.90
2015,04,25,10,00,8.00
2015,04,25,10,01,8.00
2015,04,25,10,02,8.00
2015,04,25,10,03,7.90
2015,04,25,10,04,7.90
2015,04,25,10,05,7.90
2015,04,25,10,06,8.00
2015,04,25,10,07,8.00
2015,04,25,10,08,8.00
2015,04,25,10,09,8.10
2015,04,25,10,10,8.10
2015,04,25,10,11,8.20
2015,04,25,10,12,8.20
2015,04,25,10,13,8.30
2015,04,25,10,14,8.30
2015,04,25,10,15,8.30
2015,04,25,10,16,8.30
2015,04,25,10,17,8.30
2015,04,25,10,18,8.40
2015,04,25,10,19,8.40
2015,04,25,10,20,8.50
2015,04,25,10,21,8.50
2015,04,25,10,22,8.50
2015,04,25,10,23,8.50
2015,04,25,10,24,8.60
2015,04,25,10,25,8.60
2015,04,25,10,26,8.60
2015,04,25,10,27,8.70
2015,04,25,10,28,8.60
2015,04,25,10,29,8.60
2015,04,25,10,30,8.70
2015,04,25,10,31,8.70
2015,04,25,10,32,8.70
2015,04,25,10,33,8.70
2015,04,25,10,34,8.70
2015,04,25,10,35,8.70
2015,04,25,10,36,8.70
2015,04,25,10,37,8.70
2015,04,25,10,38,8.70
2015,04,25,10,39,8.80
2015,04,25,10,40,8.80
2015,04,25,10,41,8.80
2015,04,25,10,42,8.80
2015,04,25,10,43,8.80
2015,04,25,10,44,8.90
2015,04,25,10,45,8.90
2015,04,25,10,46,9.00
2015,04,25,10,47,9.00
2015,04,25,10,48,9.00
2015,04,25,10,49,9.00
2015,04,25,10,50,9.00
2015,04,25,10,51,9.10
2015,04,25,10,52,9.10
2015,04,25,10,53,9.10
2015,04,25,10,54,9.10
2015,04,25,10,55,9.10
2015,04,25,10,56,9.10
2015,04,25,10,57,9.10
2015,04,25,10,58,9.20
2015,04,25,10,59,9.20
2015,04,25,11,00,9.20
2015,04,25,11,01,9.20
2015,04,25,11,02,9.20
2015,04,25,11,03,9.20
2015,04,25,11,04,9.30
2015,04,25,11,05,9.30
2015,04,25,11,06,9.30
2015,04,25,11,07,9.30
2015,04,25,11,08,9.30
2015,04,25,11,09,9.40
2015,04,25,11,10,9.40
2015,04,25,11,11,9.40
2015,04,25,11,12,9.40
2015,04,25,11,13,9.40
2015,04,25,11,14,9.40
2015,04,25,11,15,9.40
2015,04,25,11,16,9.50
2015,04,25,11,17,9.50
2015,04,25,11,18,9.50
2015,04,25,11,19,9.50
2015,04,25,11,20,9.60
2015,04,25,11,21,9.60
2015,04,25,11,22,9.60
2015,04,25,11,23,9.60
2015,04,25,11,24,9.60
2015,04,25,11,25,9.60
2015,04,25,11,26,9.60
2015,04,25,11,27,9.70
2015,04,25,11,28,9.60
2015,04,25,11,29,9.60
2015,04,25,11,30,9.60
2015,04,25,11,31,9.60
2015,04,25,11,32,9.60
2015,04,25,11,33,9.70
2015,04,25,11,34,9.70
2015,04,25,11,35,9.70
2015,04,25,11,36,9.70
2015,04,25,11,37,9.70
2015,04,25,11,38,9.70
2015,04,25,11,39,9.70
2015,04,25,11,40,9.70
2015,04,25,11,41,9.70
2015,04,25,11,42,9.60
2015,04,25,11,43,9.60
2015,04,25,11,44,9.50
2015,04,25,11,45,9.50
2015,04,25,11,46,9.40
2015,04,25,11,47,9.40
2015,04,25,11,48,9.40
2015,04,25,11,49,9.40
2015,04,25,11,50,9.50
2015,04,25,11,51,9.60
2015,04,25,11,52,9.70
2015,04,25,11,53,9.80
2015,04,25,11,54,9.80
2015,04,25,11,55,9.90
2015,04,25,11,56,9.90
2015,04,25,11,57,9.90
2015,04,25,11,58,10.00
2015,04,25,11,59,10.20
2015,04,25,12,00,10.20
2015,04,25,12,01,10.30
2015,04,25,12,02,10.20
2015,04,25,12,03,10.20
2015,04,25,12,04,10.20
2015,04,25,12,05,10.20
2015,04,25,12,06,10.20
2015,04,25,12,07,10.20
2015,04,25,12,08,10.20
2015,04,25,12,09,10.30
2015,04,25,12,10,10.40
2015,04,25,12,11,10.40
2015,04,25,12,12,10.40
2015,04,25,12,13,10.50
2015,04,25,12,14,10.60
2015,04,25,12,15,10.60
2015,04,25,12,16,10.60
2015,04,25,12,17,10.60
2015,04,25,12,18,10.60
2015,04,25,12,19,10.50
2015,04,25,12,20,10.40
2015,04,25,12,21,10.40
2015,04,25,12,22,10.50
2015,04,25,12,23,10.60
2015,04,25,12,24,10.60
2015,04,25,12,25,10.60
2015,04,25,12,26,10.60
2015,04,25,12,27,10.60
2015,04,25,12,28,10.40
2015,04,25,12,29,10.40
2015,04,25,12,30,10.40
2015,04,25,12,31,10.30
2015,04,25,12,32,10.20
2015,04,25,12,33,10.20
2015,04,25,12,34,10.20
2015,04,25,12,35,10.20
2015,04,25,12,36,10.20
2015,04,25,12,37,10.20
2015,04,25,12,38,10.20
2015,04,25,12,39,10.20
2015,04,25,12,40,10.20
2015,04,25,12,41,10.20
2015,04,25,12,42,10.30
2015,04,25,12,43,10.30
2015,04,25,12,44,10.30
2015,04,25,12,45,10.30
2015,04,25,12,46,10.30
2015,04,25,12,47,10.40
2015,04,25,12,48,10.40
2015,04,25,12,49,10.40
2015,04,25,12,50,10.60
2015,04,25,12,51,10.60
2015,04,25,12,52,10.60
2015,04,25,12,53,10.60
2015,04,25,12,54,10.70
2015,04,25,12,55,10.80
2015,04,25,12,56,10.70
2015,04,25,12,57,10.70
2015,04,25,12,58,10.60
2015,04,25,12,59,10.60
2015,04,25,13,00,10.60
2015,04,25,13,01,10.70
2015,04,25,13,02,10.70
2015,04,25,13,03,10.70
2015,04,25,13,04,10.80
2015,04,25,13,05,10.80
2015,04,25,13,06,10.80
2015,04,25,13,07,10.70
2015,04,25,13,08,10.60
2015,04,25,13,09,10.60
2015,04,25,13,10,10.60
2015,04,25,13,11,10.60
2015,04,25,13,12,10.60
2015,04,25,13,13,10.60
2015,04,25,13,14,10.70
2015,04,25,13,15,10.80
2015,04,25,13,16,10.80
2015,04,25,13,17,10.90
2015,04,25,13,18,10.90
2015,04,25,13,19,10.90
2015,04,25,13,20,10.90
2015,04,25,13,21,10.90
2015,04,25,13,22,10.90
2015,04,25,13,23,10.90
2015,04,25,13,24,10.90
2015,04,25,13,25,10.90
2015,04,25,13,26,10.90
2015,04,25,13,27,10.90
2015,04,25,13,28,10.80
2015,04,25,13,29,10.80
2015,04,25,13,30,10.80
2015,04,25,13,31,10.80
2015,04,25,13,32,10.80
2015,04,25,13,33,10.80
2015,04,25,13,34,10.70
2015,04,25,13,35,10.70
2015,04,25,13,36,10.60
2015,04,25,13,37,10.60
2015,04,25,13,38,10.60
2015,04,25,13,39,10.60
2015,04,25,13,40,10.60
2015,04,25,13,41,10.60
2015,04,25,13,42,10.60
2015,04,25,13,43,10.60
2015,04,25,13,44,10.40
2015,04,25,13,45,10.40
2015,04,25,13,46,10.40
2015,04,25,13,47,10.40
2015,04,25,13,48,10.40
2015,04,25,13,49,10.40
2015,04,25,13,50,10.40
2015,04,25,13,51,10.40
2015,04,25,13,52,10.40
2015,04,25,13,53,10.30
2015,04,25,13,54,10.30
2015,04,25,13,55,10.30
2015,04,25,13,56,10.40
2015,04,25,13,57,10.40
2015,04,25,13,58,10.40
2015,04,25,13,59,10.40
2015,04,25,14,00,10.40
2015,04,25,14,01,10.40
2015,04,25,14,02,10.40
2015,04,25,14,03,10.40
2015,04,25,14,04,10.40
2015,04,25,14,05,10.40
2015,04,25,14,06,10.40
2015,04,25,14,07,10.40
2015,04,25,14,08,10.40
2015,04,25,14,09,10.40
2015,04,25,14,10,10.40
2015,04,25,14,11,10.50
2015,04,25,14,12,10.60
2015,04,25,14,13,10.60
2015,04,25,14,14,10.60
2015,04,25,14,15,10.60
2015,04,25,14,16,10.70
2015,04,25,14,17,10.70
2015,04,25,14,18,10.80
2015,04,25,14,19,10.80
2015,04,25,14,20,10.80
2015,04,25,14,21,10.80
2015,04,25,14,22,10.80
2015,04,25,14,23,10.80
2015,04,25,14,24,10.80
2015,04,25,14,25,10.70
2015,04,25,14,26,10.70
2015,04,25,14,27,10.70
2015,04,25,14,28,10.70
2015,04,25,14,29,10.70
2015,04,25,14,30,10.80
2015,04,25,14,31,10.80
2015,04,25,14,32,10.90
2015,04,25,14,33,10.90
2015,04,25,14,34,10.90
2015,04,25,14,35,10.90
2015,04,25,14,36,10.80
2015,04,25,14,37,10.80
2015,04,25,14,38,10.80
2015,04,25,14,39,10.80
2015,04,25,14,40,10.80
2015,04,25,14,41,10.80
2015,04,25,14,42,10.70
2015,04,25,14,43,10.70
2015,04,25,14,44,10.60
2015,04,25,14,45,10.60
2015,04,25,14,46,10.60
2015,04,25,14,47,10.60
2015,04,25,14,48,10.60
2015,04,25,14,49,10.60
2015,04,25,14,50,10.40
2015,04,25,14,51,10.30
2015,04,25,14,52,10.40
2015,04,25,14,53,10.40
2015,04,25,14,54,10.40
2015,04,25,14,55,10.40
2015,04,25,14,56,10.40
2015,04,25,14,57,10.50
2015,04,25,14,58,10.60
2015,04,25,14,59,10.60
2015,04,25,15,00,10.60
2015,04,25,15,01,10.60
2015,04,25,15,02,10.60
2015,04,25,15,03,10.70
2015,04,25,15,04,10.70
2015,04,25,15,05,10.70
2015,04,25,15,06,10.80
2015,04,25,15,07,10.80
2015,04,25,15,08,10.90
2015,04,25,15,09,10.90
2015,04,25,15,10,10.90
2015,04,25,15,11,10.80
2015,04,25,15,12,10.70
2015,04,25,15,13,10.60
2015,04,25,15,14,10.60
2015,04,25,15,15,10.60
2015,04,25,15,16,10.70
2015,04,25,15,17,10.80
2015,04,25,15,18,10.90
2015,04,25,15,19,11.00
2015,04,25,15,20,11.10
2015,04,25,15,21,11.10
2015,04,25,15,22,11.20
2015,04,25,15,23,11.40
2015,04,25,15,24,11.40
2015,04,25,15,25,11.40
2015,04,25,15,26,11.50
2015,04,25,15,27,11.60
2015,04,25,15,28,11.40
2015,04,25,15,29,11.50
2015,04,25,15,30,11.60
2015,04,25,15,31,11.70
2015,04,25,15,32,11.70
2015,04,25,15,33,11.80
2015,04,25,15,34,11.80
2015,04,25,15,35,11.70
2015,04,25,15,36,11.60
2015,04,25,15,37,11.70
2015,04,25,15,38,11.80
2015,04,25,15,39,11.80
2015,04,25,15,40,11.90
2015,04,25,15,41,12.00
2015,04,25,15,42,12.00
2015,04,25,15,43,12.00
2015,04,25,15,44,12.00
2015,04,25,15,45,12.00
2015,04,25,15,46,12.00
2015,04,25,15,47,12.10
2015,04,25,15,48,12.10
2015,04,25,15,49,12.10
2015,04,25,15,50,12.10
2015,04,25,15,51,12.10
2015,04,25,15,52,12.20
2015,04,25,15,53,12.30
2015,04,25,15,54,12.40
2015,04,25,15,55,12.40
2015,04,25,15,56,12.40
2015,04,25,15,57,12.50
2015,04,25,15,58,12.50
2015,04,25,15,59,12.60
2015,04,25,16,00,12.60
2015,04,25,16,01,12.50
2015,04,25,16,02,12.40
2015,04,25,16,03,12.30
2015,04,25,16,04,12.30
2015,04,25,16,05,12.40
2015,04,25,16,06,12.40
2015,04,25,16,07,12.50
2015,04,25,16,08,12.50
2015,04,25,16,09,12.60
2015,04,25,16,10,12.60
2015,04,25,16,11,12.60
2015,04,25,16,12,12.60
2015,04,25,16,13,12.60
2015,04,25,16,14,12.50
2015,04,25,16,15,12.50
2015,04,25,16,16,12.50
2015,04,25,16,17,12.50
2015,04,25,16,18,12.50
2015,04,25,16,19,12.50
2015,04,25,16,20,12.50
2015,04,25,16,21,12.50
2015,04,25,16,22,12.40
2015,04,25,16,23,12.40
2015,04,25,16,24,12.30
2015,04,25,16,25,12.30
2015,04,25,16,26,12.30
2015,04,25,16,27,12.30
2015,04,25,16,28,12.30
2015,04,25,16,29,12.30
2015,04,25,16,30,12.30
2015,04,25,16,31,12.30
2015,04,25,16,32,12.30
2015,04,25,16,33,12.20
2015,04,25,16,34,12.20
2015,04,25,16,35,12.10
2015,04,25,16,36,12.00
2015,04,25,16,37,12.00
2015,04,25,16,38,12.00
2015,04,25,16,39,11.90
2015,04,25,16,40,11.90
2015,04,25,16,41,11.90
2015,04,25,16,42,11.80
2015,04,25,16,43,11.70
2015,04,25,16,44,11.50
2015,04,25,16,45,11.40
2015,04,25,16,46,11.20
2015,04,25,16,47,11.20
2015,04,25,16,48,11.30
2015,04,25,16,49,11.20
2015,04,25,16,50,11.20
2015,04,25,16,51,11.20
2015,04,25,16,52,11.20
2015,04,25,16,53,11.20
2015,04,25,16,54,11.30
2015,04,25,16,55,11.20
2015,04,25,16,56,11.10
2015,04,25,16,57,11.10
2015,04,25,16,58,11.10
2015,04,25,16,59,11.00
2015,04,25,17,00,10.90
2015,04,25,17,01,11.00
2015,04,25,17,02,11.10
2015,04,25,17,03,11.10
2015,04,25,17,04,11.20
2015,04,25,17,05,11.30
2015,04,25,17,06,11.30
2015,04,25,17,07,11.30
2015,04,25,17,08,11.30
2015,04,25,17,09,11.30
2015,04,25,17,10,11.40
2015,04,25,17,11,11.60
2015,04,25,17,12,11.60
2015,04,25,17,13,11.70
2015,04,25,17,14,11.70
2015,04,25,17,15,11.70
2015,04,25,17,16,11.60
2015,04,25,17,17,11.60
2015,04,25,17,18,11.60
2015,04,25,17,19,11.70
2015,04,25,17,20,11.80
2015,04,25,17,21,11.80
2015,04,25,17,22,11.80
2015,04,25,17,23,11.90
2015,04,25,17,24,11.80
2015,04,25,17,25,11.70
2015,04,25,17,26,11.60
2015,04,25,17,27,11.60
2015,04,25,17,28,11.50
2015,04,25,17,29,11.40
2015,04,25,17,30,11.40
2015,04,25,17,31,11.40
2015,04,25,17,32,11.40
2015,04,25,17,33,11.40
2015,04,25,17,34,11.40
2015,04,25,17,35,11.30
2015,04,25,17,36,11.30
2015,04,25,17,37,11.30
2015,04,25,17,38,11.30
2015,04,25,17,39,11.20
2015,04,25,17,40,11.20
2015,04,25,17,41,11.10
2015,04,25,17,42,11.00
2015,04,25,17,43,10.90
2015,04,25,17,44,10.90
2015,04,25,17,45,10.90
2015,04,25,17,46,11.00
2015,04,25,17,47,11.10
2015,04,25,17,48,11.10
2015,04,25,17,49,11.10
2015,04,25,17,50,11.00